1491073201.12,61686,16.38,73810.0,-1.47,-30.27,-30.51,0,*5C
1491073202.39,61687,16.38,73814.5,-1.47,-30.67,-30.73,0,*59
1491073203.63,61688,16.38,73820.5,-1.47,-30.83,-31.05,0,*5C
1491073204.88,61689,16.38,73822.3,-1.47,-30.67,-30.83,0,*58
1491073206.14,61690,16.38,73818.8,-1.47,-30.51,-30.67,0,*5F
1491073207.37,61691,16.38,73822.5,-1.45,-30.67,-30.83,0,*53
1491073208.6,61692,16.38,73820.0,-1.47,-30.45,-30.67,0,*58
1491073209.87,61693,16.38,73816.0,-1.47,-29.95,-30.01,0,*5C
1491073211.13,61694,16.38,73814.8,-1.47,-30.33,-30.51,0,*5A
1491073212.36,61695,16.38,73818.8,-1.45,-30.23,-30.39,0,*56
1491073213.61,61696,16.38,73822.0,-1.43,-30.39,-30.45,0,*53
1491073214.85,61697,16.38,73814.3,-1.45,-30.51,-30.67,0,*5A
1491073216.15,61698,16.38,73822.3,-1.43,-30.73,-30.77,0,*52
1491073217.39,61699,16.38,73820.8,-1.45,-30.77,-30.83,0,*5A
1491073218.64,61700,16.38,73818.8,-1.45,-30.77,-30.83,0,*5B
1491073219.9,61701,16.38,73824.3,-1.45,-30.95,-31.11,0,*5C
1491073221.14,61702,16.38,73826.3,-1.45,-30.95,-31.01,0,*5E
1491073222.36,61703,16.38,73824.8,-1.45,-30.67,-30.67,0,*53
1491073223.6,61704,16.38,73816.5,-1.45,-29.95,-30.05,0,*55
1491073224.81,61705,16.38,73820.0,-1.45,-30.11,-30.27,0,*50
1491073226.06,61706,16.38,73822.5,-1.45,-29.95,-29.89,0,*5B
1491073227.35,61707,16.38,73824.0,-1.43,-29.89,-30.01,0,*59
1491073228.59,61708,16.38,73820.3,-1.45,-29.89,-30.23,0,*50
1491073229.85,61709,16.38,73820.0,-1.43,-30.05,-30.23,0,*5B
1491073231.1,61710,16.38,73824.3,-1.41,-30.01,-30.05,0,*51
1491073232.33,61711,16.38,73820.0,-1.41,-29.83,-30.01,0,*56
1491073233.6,61712,16.38,73816.0,-1.41,-29.89,-30.01,0,*5F
1491073234.85,61713,16.38,73812.5,-1.39,-30.01,-30.11,0,*58
1491073236.11,61714,16.38,73814.8,-1.41,-29.89,-30.05,0,*5D
1491073237.34,61715,16.38,73802.8,-1.39,-29.83,-29.95,0,*58
1491073238.58,61716,16.38,73798.8,-1.39,-29.83,-29.95,0,*5B
1491073239.84,61717,16.38,73792.5,-1.39,-30.17,-30.27,0,*5E
1491073241.09,61718,16.38,73800.5,-1.35,-30.45,-30.51,0,*5B
1491073242.37,61719,16.38,73806.8,-1.31,-30.51,-30.61,0,*58
1491073243.65,61720,16.38,73810.3,-1.31,-30.51,-30.61,0,*52
1491073244.89,61721,16.38,73802.0,-1.35,-30.23,-30.33,0,*55
1491073246.15,61722,16.38,73810.5,-1.35,-30.61,-30.67,0,*51
1491073247.41,61723,16.38,73808.0,-1.35,-30.67,-30.61,0,*50
1491073248.7,61724,16.38,73818.5,-1.35,-30.51,-30.61,0,*52
1491073249.92,61725,16.38,73802.0,-1.31,-30.23,-30.27,0,*50
1491073251.18,61726,16.38,73790.8,-1.35,-29.89,-30.11,0,*5A
1491073252.42,61727,16.38,73794.0,-1.35,-30.27,-30.45,0,*56
1491073253.65,61728,16.38,73794.8,-1.35,-30.27,-30.45,0,*59
1491073254.88,61729,16.38,73804.8,-1.31,-30.23,-30.33,0,*59
1491073256.17,61730,16.38,73796.3,-1.31,-29.89,-30.05,0,*5C
1491073257.4,61731,16.38,73804.0,-1.31,-30.23,-30.33,0,*50
1491073258.65,61732,16.38,73812.3,-1.35,-30.45,-30.61,0,*50
1491073259.93,61733,16.38,73804.3,-1.31,-30.51,-30.51,0,*53
1491073261.16,61734,16.38,73798.3,-1.35,-30.11,-30.23,0,*51
1491073262.39,61735,16.38,73806.0,-1.31,-30.23,-30.33,0,*54
1491073263.63,61736,16.38,73806.3,-1.29,-29.83,-30.01,0,*5D
1491073264.85,61737,16.38,73794.0,-1.29,-30.05,-30.27,0,*5E
1491073266.05,61738,16.38,73792.8,-1.29,-30.45,-30.45,0,*51
1491073267.28,61739,16.38,73798.3,-1.29,-30.39,-30.45,0,*5B
1491073268.48,61740,16.38,73804.3,-1.29,-30.45,-30.45,0,*5E
1491073269.74,61741,16.38,73800.0,-1.29,-30.61,-30.77,0,*58
1491073271.0,61742,16.38,73818.5,-1.29,-30.73,-30.89,0,*59
1491073272.26,61743,16.38,73826.5,-1.29,-30.89,-30.95,0,*50
1491073273.51,61744,16.38,73816.3,-1.29,-30.95,-31.11,0,*57
1491073274.77,61745,16.38,73816.3,-1.29,-30.95,-31.11,0,*56
1491073276.05,61746,16.38,73810.0,-1.31,-30.95,-30.95,0,*51
1491073277.29,61747,16.38,73794.5,-1.31,-30.67,-30.67,0,*50
1491073278.55,61748,16.38,73808.5,-1.35,-30.45,-30.61,0,*5D
1491073279.78,61749,16.38,73810.8,-1.31,-30.27,-30.45,0,*5A
1491073281.01,61750,16.38,73802.0,-1.31,-30.33,-30.33,0,*56
1491073282.26,61751,16.38,73812.3,-1.31,-30.51,-30.45,0,*52
1491073283.51,61752,16.38,73816.3,-1.29,-30.39,-30.55,0,*57
1491073284.74,61753,16.38,73818.3,-1.29,-30.27,-30.39,0,*53
1491073285.95,61754,16.38,73820.8,-1.29,-30.27,-30.45,0,*5F
1491073287.17,61755,16.38,73818.3,-1.29,-30.39,-30.45,0,*51
1491073288.4,61756,16.31,73816.0,-1.29,-30.45,-30.61,0,*5F
1491073289.67,61757,16.31,73818.3,-1.29,-30.73,-30.77,0,*5C
1491073290.9,61758,16.38,73822.5,-1.29,-30.89,-31.05,0,*52
1491073292.13,61759,16.38,73824.5,-1.29,-31.23,-31.29,0,*5C
1491073293.36,61760,16.38,73830.3,-1.31,-31.01,-31.29,0,*5F
1491073294.62,61761,16.31,73824.8,-1.31,-30.83,-30.95,0,*53
1491073295.85,61762,16.31,73828.5,-1.29,-30.89,-31.05,0,*5B
1491073297.11,61763,16.38,73826.8,-1.31,-31.11,-31.17,0,*50
1491073298.39,61764,16.38,73826.3,-1.31,-30.95,-31.11,0,*5C
1491073299.63,61765,16.31,73820.5,-1.35,-30.83,-30.83,0,*54
1491073300.87,61766,16.38,73822.0,-1.35,-30.83,-31.01,0,*5C
1491073302.12,61767,16.31,73820.3,-1.31,-30.95,-31.17,0,*59
1491073303.38,61768,16.38,73822.0,-1.31,-30.83,-31.11,0,*57
1491073304.64,61769,16.31,73822.8,-1.35,-30.83,-30.95,0,*5F
1491073305.9,61770,16.38,73826.3,-1.31,-30.83,-30.95,0,*53
1491073307.13,61771,16.31,73824.5,-1.31,-30.83,-31.01,0,*5E
1491073308.38,61772,16.31,73820.0,-1.35,-30.83,-30.95,0,*55
1491073309.64,61773,16.38,73824.3,-1.31,-30.95,-31.29,0,*51
1491073310.93,61774,16.38,73816.3,-1.35,-30.95,-31.11,0,*59
1491073312.16,61775,16.31,73810.5,-1.35,-30.83,-31.01,0,*5E
1491073313.39,61776,16.31,73808.0,-1.35,-30.83,-31.01,0,*5D
1491073314.65,61777,16.38,73808.8,-1.35,-30.95,-31.01,0,*5B
1491073315.94,61778,16.31,73808.0,-1.35,-30.95,-31.11,0,*55
1491073317.22,61779,16.31,73818.5,-1.31,-30.95,-31.11,0,*50
1491073318.5,61780,16.31,73814.8,-1.31,-30.77,-30.95,0,*57
1491073319.75,61781,16.38,73812.8,-1.35,-30.45,-30.61,0,*58
1491073321.04,61782,16.31,73810.3,-1.31,-30.61,-30.77,0,*5E
1491073322.33,61783,16.31,73812.0,-1.31,-30.61,-30.77,0,*5F
1491073323.62,61784,16.38,73818.0,-1.35,-30.77,-30.77,0,*5B
1491073324.88,61785,16.31,73818.0,-1.35,-30.77,-30.83,0,*51
1491073326.14,61786,16.31,73822.3,-1.35,-30.95,-31.01,0,*55
1491073327.37,61787,16.38,73822.3,-1.35,-30.83,-31.01,0,*53
1491073328.63,61788,16.38,73822.8,-1.35,-30.83,-30.95,0,*50
1491073329.92,61789,16.31,73820.3,-1.35,-30.61,-30.61,0,*56
1491073331.21,61790,16.38,73826.3,-1.35,-30.61,-30.77,0,*59
1491073332.49,61791,16.38,73828.3,-1.35,-30.61,-30.77,0,*58
1491073333.77,61792,16.31,73826.0,-1.35,-30.51,-30.51,0,*5C
1491073335.01,61793,16.31,73822.5,-1.35,-30.27,-30.45,0,*59
1491073336.24,61794,16.31,73820.5,-1.35,-30.23,-30.27,0,*5E
1491073337.5,61795,16.31,73818.0,-1.31,-30.61,-30.83,0,*53
1491073338.76,61796,16.31,73808.0,-1.31,-30.77,-30.67,0,*5D
1491073339.99,61797,16.31,73814.0,-1.31,-30.27,-30.45,0,*59
1491073341.22,61798,16.38,73814.3,-1.31,-30.11,-30.33,0,*52
1491073342.47,61799,16.31,73812.0,-1.31,-30.45,-30.51,0,*56
1491073343.76,61800,16.31,73814.8,-1.31,-30.51,-30.61,0,*5F
1491073345.0,61801,16.38,73816.3,-1.31,-30.67,-30.83,0,*57
1491073346.25,61802,16.31,73814.8,-1.31,-30.61,-30.67,0,*58
1491073347.51,61803,16.31,73814.8,-1.31,-30.51,-30.45,0,*5A
1491073348.75,61804,16.31,73808.3,-1.29,-30.39,-30.39,0,*51
1491073349.99,61805,16.31,73806.0,-1.31,-30.27,-30.33,0,*5C
1491073351.2,61806,16.31,73804.0,-1.29,-30.27,-30.27,0,*53
1491073352.45,61807,16.31,73802.3,-1.27,-30.27,-30.55,0,*59
1491073353.66,61808,16.31,73802.8,-1.29,-30.23,-30.45,0,*5D
1491073354.89,61809,16.31,73804.3,-1.29,-30.45,-30.61,0,*5A
1491073356.12,61810,16.31,73800.8,-1.27,-30.27,-30.45,0,*5E
1491073357.37,61811,16.38,73808.3,-1.27,-30.55,-30.45,0,*5A
1491073358.58,61812,16.31,73810.8,-1.29,-30.27,-30.45,0,*52
1491073359.83,61813,16.31,73812.3,-1.27,-30.45,-30.39,0,*52
1491073361.1,61814,16.31,73816.8,-1.27,-30.39,-30.39,0,*5E
1491073362.33,61815,16.31,73816.3,-1.27,-30.45,-30.45,0,*5F
1491073363.61,61816,16.31,73814.0,-1.27,-30.55,-30.73,0,*58
1491073364.9,61817,16.31,73818.8,-1.27,-30.73,-30.77,0,*59
1491073366.18,61818,16.31,73820.0,-1.27,-30.89,-30.95,0,*5F
1491073367.44,61819,16.31,73820.5,-1.29,-30.89,-31.11,0,*5D
1491073368.69,61820,16.38,73824.8,-1.29,-30.77,-30.95,0,*5B
1491073369.98,61821,16.31,73822.5,-1.27,-30.95,-31.11,0,*55
1491073371.21,61822,16.31,73824.8,-1.29,-30.89,-31.05,0,*50
1491073372.49,61823,16.31,73830.5,-1.27,-30.77,-30.95,0,*56
1491073373.74,61824,16.31,73824.3,-1.29,-30.77,-30.95,0,*5F
1491073375.0,61825,16.31,73822.8,-1.29,-30.61,-30.73,0,*51
1491073376.23,61826,16.31,73822.8,-1.25,-30.55,-30.67,0,*5C
1491073377.49,61827,16.31,73824.0,-1.29,-30.61,-30.73,0,*53
1491073378.78,61828,16.31,73824.0,-1.27,-30.77,-30.89,0,*50
1491073380.01,61829,16.31,73822.8,-1.29,-30.89,-31.05,0,*5B
1491073381.26,61830,16.31,73820.5,-1.29,-30.89,-31.11,0,*56
1491073382.49,61831,16.31,73822.3,-1.29,-31.05,-31.23,0,*53
1491073383.76,61832,16.31,73822.5,-1.29,-31.23,-31.51,0,*51
1491073385.02,61833,16.31,73820.5,-1.29,-31.23,-31.39,0,*5E
1491073386.28,61834,16.31,73818.0,-1.29,-31.11,-31.23,0,*53
1491073387.52,61835,16.31,73814.0,-1.29,-31.11,-31.29,0,*58
1491073388.75,61836,16.31,73810.0,-1.35,-31.01,-31.29,0,*57
1491073389.98,61837,16.31,73814.5,-1.35,-31.17,-31.33,0,*5A
1491073391.21,61838,16.31,73818.5,-1.31,-31.29,-31.29,0,*57
1491073392.44,61839,16.31,73816.8,-1.35,-31.17,-31.33,0,*54
1491073393.66,61840,16.31,73814.0,-1.35,-31.01,-31.33,0,*5D
1491073394.92,61841,16.31,73812.3,-1.31,-30.95,-31.01,0,*55
1491073396.2,61842,16.31,73810.3,-1.35,-30.77,-30.95,0,*52
1491073397.49,61843,16.31,73804.3,-1.31,-30.77,-30.77,0,*5B
1491073398.74,61844,16.31,73798.5,-1.31,-30.45,-30.61,0,*5A
1491073400.01,61845,16.31,73796.0,-1.35,-30.67,-30.77,0,*58
1491073401.27,61846,16.31,73806.8,-1.35,-30.95,-31.17,0,*51
1491073402.55,61847,16.31,73806.8,-1.31,-30.95,-30.95,0,*5F
1491073403.79,61848,16.31,73812.3,-1.35,-30.67,-30.83,0,*5E
1491073405.05,61849,16.31,73812.3,-1.35,-30.83,-30.95,0,*52
1491073406.33,61850,16.31,73816.0,-1.31,-30.95,-30.95,0,*59
1491073407.59,61851,16.31,73816.0,-1.31,-30.95,-31.01,0,*54
1491073408.85,61852,16.31,73818.5,-1.35,-31.11,-31.17,0,*59
1491073410.08,61853,16.31,73818.8,-1.35,-31.01,-31.29,0,*54
1491073411.31,61854,16.31,73818.3,-1.35,-31.17,-31.33,0,*5F
1491073412.55,61855,16.31,73818.3,-1.35,-31.17,-31.45,0,*5F
1491073413.78,61856,16.38,73822.3,-1.35,-31.01,-31.17,0,*5C
1491073415.04,61857,16.31,73822.0,-1.35,-30.83,-31.11,0,*50
1491073416.27,61858,16.31,73816.8,-1.35,-30.83,-31.01,0,*5E
1491073417.53,61859,16.31,73820.0,-1.31,-31.11,-31.29,0,*5B
1491073418.76,61860,16.31,73826.0,-1.35,-31.17,-31.33,0,*58
1491073420.0,61861,16.31,73822.3,-1.35,-31.17,-31.45,0,*58
1491073421.2,61862,16.31,73818.8,-1.41,-31.05,-31.33,0,*5A
1491073422.46,61863,16.31,73820.0,-1.39,-31.05,-31.23,0,*55
1491073423.69,61864,16.31,73820.8,-1.39,-31.01,-31.05,0,*52
1491073424.92,61865,16.31,73822.8,-1.41,-31.05,-31.23,0,*5C
1491073426.18,61866,16.31,73814.0,-1.39,-30.89,-31.05,0,*51
1491073427.4,61867,16.31,73814.8,-1.41,-31.05,-31.11,0,*5F
1491073428.6,61868,16.31,73818.8,-1.41,-31.01,-31.05,0,*51
1491073429.81,61869,16.31,73816.8,-1.41,-31.05,-31.17,0,*57
1491073431.04,61870,16.31,73820.3,-1.39,-31.01,-31.17,0,*54
1491073432.24,61871,16.31,73824.3,-1.41,-31.05,-31.29,0,*53
1491073433.47,61872,16.31,73824.3,-1.39,-31.05,-31.33,0,*54
1491073434.68,61873,16.31,73818.5,-1.41,-31.05,-31.17,0,*5C
1491073435.91,61874,16.31,73824.0,-1.41,-31.05,-31.11,0,*5D
1491073437.11,61875,16.31,73822.0,-1.41,-31.05,-31.29,0,*57
1491073438.34,61876,16.31,73820.5,-1.41,-31.05,-31.23,0,*5E
1491073439.55,61877,16.31,73820.3,-1.41,-31.05,-31.29,0,*55
1491073440.8,61878,16.31,73824.3,-1.39,-31.01,-31.23,0,*5B
1491073442.06,61879,16.31,73818.3,-1.39,-30.89,-31.01,0,*5B
1491073443.32,61880,16.31,73816.5,-1.41,-30.61,-30.77,0,*54
1491073444.55,61881,16.31,73822.0,-1.41,-30.89,-31.05,0,*57
1491073445.78,61882,16.31,73822.5,-1.41,-31.05,-31.11,0,*54
1491073447.01,61883,16.31,73820.5,-1.41,-30.77,-31.05,0,*54
1491073448.24,61884,16.31,73822.0,-1.41,-30.45,-30.55,0,*56
1491073449.49,61885,16.31,73822.3,-1.39,-30.73,-31.05,0,*59
1491073450.73,61886,16.31,73826.8,-1.39,-30.83,-31.01,0,*51
1491073451.96,61887,16.31,73826.0,-1.41,-31.05,-31.11,0,*51
1491073453.18,61888,16.31,73822.8,-1.41,-31.05,-31.39,0,*54
1491073454.44,61889,16.31,73816.0,-1.41,-30.89,-30.95,0,*57
1491073455.69,61890,16.31,73822.3,-1.43,-30.01,-30.23,0,*50
1491073456.98,61891,16.31,73814.5,-1.39,-30.01,-30.17,0,*5B
1491073458.27,61892,16.31,73812.3,-1.35,-30.61,-30.61,0,*53
1491073459.55,61893,16.31,73814.5,-1.39,-30.55,-30.73,0,*5A
1491073460.79,61894,16.31,73816.8,-1.35,-30.67,-30.83,0,*5F
1491073462.06,61895,16.31,73820.3,-1.35,-30.67,-30.77,0,*55
1491073463.33,61896,16.31,73824.5,-1.39,-30.83,-30.89,0,*51
1491073464.58,61897,16.31,73824.8,-1.39,-31.01,-31.11,0,*5B
1491073465.8,61898,16.31,73824.5,-1.41,-30.45,-30.55,0,*5B
1491073467.06,61899,16.31,73820.5,-1.41,-30.77,-30.95,0,*57
1491073468.29,61900,16.31,73826.5,-1.39,-31.01,-31.05,0,*51
1491073469.55,61901,16.31,73826.8,-1.39,-30.51,-30.67,0,*51
1491073470.81,61902,16.31,73820.8,-1.39,-30.73,-30.83,0,*58
1491073472.04,61903,16.31,73818.5,-1.41,-30.89,-31.05,0,*5C
1491073473.33,61904,16.31,73818.3,-1.39,-30.39,-30.61,0,*5C
1491073474.58,61905,16.31,73818.0,-1.39,-30.55,-30.67,0,*51
1491073475.82,61906,16.31,73822.3,-1.35,-30.23,-30.33,0,*5E
1491073477.04,61907,16.31,73818.5,-1.35,-30.23,-30.27,0,*5A
1491073478.28,61908,16.31,73818.3,-1.35,-30.27,-30.33,0,*54
1491073479.53,61909,16.31,73818.8,-1.35,-30.45,-30.51,0,*55
1491073480.76,61910,16.31,73812.8,-1.35,-30.33,-30.45,0,*59
1491073482.0,61911,16.31,73812.8,-1.35,-30.27,-30.33,0,*5C
1491073483.23,61912,16.31,73812.8,-1.35,-30.23,-30.27,0,*5E
1491073484.47,61913,16.31,73808.8,-1.31,-30.27,-30.33,0,*5A
1491073485.72,61914,16.31,73812.0,-1.31,-30.45,-30.51,0,*5D
1491073486.97,61915,16.31,73818.3,-1.29,-30.61,-30.73,0,*53
1491073488.24,61916,16.31,73822.3,-1.31,-30.77,-30.83,0,*51
1491073489.5,61917,16.31,73820.5,-1.31,-30.77,-30.83,0,*50
1491073490.76,61918,16.31,73820.0,-1.35,-30.95,-31.01,0,*5C
1491073492.04,61919,16.31,73822.8,-1.35,-30.95,-31.11,0,*5C
1491073493.3,61920,16.31,73820.0,-1.31,-30.83,-30.95,0,*58
1491073494.55,61921,16.31,73820.0,-1.35,-30.83,-30.95,0,*5D
1491073495.82,61922,16.31,73822.0,-1.35,-31.11,-31.17,0,*5F
1491073497.05,61923,16.31,73822.3,-1.35,-31.01,-31.17,0,*5F
1491073498.3,61924,16.31,73824.3,-1.35,-31.01,-31.11,0,*5E
1491073499.56,61925,16.31,73824.0,-1.31,-30.83,-31.11,0,*50
1491073500.79,61926,16.31,73826.8,-1.31,-30.83,-31.01,0,*52
1491073502.09,61927,16.31,73820.8,-1.35,-30.77,-30.77,0,*5C
1491073503.37,61928,16.31,73820.8,-1.35,-30.61,-30.77,0,*54
1491073504.62,61929,16.31,73820.0,-1.35,-30.67,-30.83,0,*58
1491073505.9,61930,16.31,73820.0,-1.35,-30.77,-30.95,0,*56
1491073507.16,61931,16.31,73820.5,-1.35,-30.77,-30.83,0,*50
1491073508.41,61932,16.31,73818.5,-1.35,-30.67,-30.83,0,*52
1491073509.67,61933,16.31,73816.3,-1.35,-30.51,-30.67,0,*5C
1491073510.93,61934,16.31,73818.3,-1.31,-30.61,-30.83,0,*56
1491073512.19,61935,16.31,73820.3,-1.35,-30.77,-30.83,0,*54
1491073513.48,61936,16.31,73822.8,-1.35,-30.77,-30.77,0,*5C
1491073514.74,61937,16.31,73822.0,-1.35,-30.67,-30.95,0,*50
1491073515.98,61938,16.31,73822.5,-1.31,-30.67,-30.83,0,*5C
1491073517.24,61939,16.31,73820.0,-1.35,-30.83,-31.11,0,*59
1491073518.52,61940,16.31,73818.3,-1.31,-30.95,-31.11,0,*54
1491073519.78,61941,16.31,73820.3,-1.35,-30.95,-31.01,0,*50
1491073521.02,61942,16.31,73822.0,-1.35,-30.67,-30.83,0,*55
1491073522.26,61943,16.31,73820.5,-1.31,-30.67,-30.83,0,*50
1491073523.53,61944,16.31,73826.0,-1.35,-30.77,-30.83,0,*52
1491073524.81,61945,16.31,73818.3,-1.35,-30.95,-31.11,0,*55
1491073526.08,61946,16.31,73816.5,-1.35,-30.67,-30.77,0,*5A
1491073527.32,61947,16.31,73818.8,-1.35,-30.67,-30.83,0,*50
1491073528.57,61948,16.31,73816.8,-1.35,-30.45,-30.51,0,*50
1491073529.81,61949,16.31,73812.8,-1.35,-30.23,-30.33,0,*55
1491073531.04,61950,16.31,73814.3,-1.31,-30.27,-30.33,0,*5D
1491073532.3,61951,16.31,73816.0,-1.35,-30.61,-30.67,0,*5B
1491073533.59,61952,16.31,73816.3,-1.35,-30.51,-30.61,0,*5D
1491073534.84,61953,16.31,73814.0,-1.35,-30.45,-30.51,0,*5A
1491073536.1,61954,16.31,73816.5,-1.31,-30.61,-30.83,0,*50
1491073537.34,61955,16.31,73816.3,-1.31,-30.67,-30.83,0,*57
1491073538.63,61956,16.31,73818.5,-1.31,-30.61,-30.77,0,*59
1491073539.89,61957,16.31,73816.0,-1.35,-30.61,-30.67,0,*5D
1491073541.17,61958,16.31,73814.8,-1.31,-30.51,-30.61,0,*53
1491073542.45,61959,16.31,73814.0,-1.31,-30.61,-30.61,0,*51
1491073543.74,61960,16.31,73810.8,-1.31,-30.77,-30.77,0,*5B
1491073545.02,61961,16.31,73810.5,-1.31,-30.77,-30.95,0,*56
1491073546.28,61962,16.31,73812.3,-1.31,-30.83,-31.11,0,*53
1491073547.56,61963,16.31,73820.0,-1.31,-30.51,-30.61,0,*5B
1491073548.79,61964,16.31,73816.3,-1.31,-30.33,-30.45,0,*5E
1491073550.04,61965,16.31,73820.3,-1.31,-30.45,-30.61,0,*58
1491073551.31,61966,16.31,73814.0,-1.31,-30.77,-30.83,0,*56
1491073552.55,61967,16.31,73808.8,-1.35,-30.67,-30.83,0,*52
1491073553.83,61968,16.31,73812.5,-1.31,-30.77,-30.95,0,*5F
1491073555.09,61969,16.31,73814.3,-1.35,-30.83,-31.11,0,*5C
1491073556.35,61970,16.31,73810.5,-1.31,-30.95,-31.17,0,*51
1491073557.63,61971,16.31,73814.0,-1.35,-30.95,-31.11,0,*52
1491073558.89,61972,16.31,73810.8,-1.35,-30.95,-31.01,0,*50
1491073560.15,61973,16.31,73812.5,-1.31,-30.95,-31.17,0,*52
1491073561.41,61974,16.31,73808.0,-1.35,-30.83,-31.11,0,*50
1491073562.67,61975,16.31,73812.3,-1.35,-30.95,-31.01,0,*57
1491073563.95,61976,16.31,73808.0,-1.31,-30.61,-30.77,0,*5B
1491073565.22,61977,16.31,73808.8,-1.31,-30.67,-30.77,0,*5C
1491073566.51,61978,16.31,73816.8,-1.35,-30.61,-30.77,0,*51
1491073567.79,61979,16.31,73812.5,-1.35,-30.95,-31.11,0,*5A
1491073569.02,61980,16.31,73812.3,-1.35,-30.83,-31.01,0,*5A
1491073570.31,61981,16.31,73810.8,-1.31,-30.51,-30.77,0,*50
1491073571.54,61982,16.31,73806.8,-1.31,-30.27,-30.45,0,*53
1491073572.81,61983,16.31,73808.3,-1.31,-30.27,-30.61,0,*54
1491073574.04,61984,16.31,73808.0,-1.35,-30.27,-30.45,0,*51
1491073575.28,61985,16.31,73814.0,-1.31,-30.27,-30.45,0,*54
1491073576.51,61986,16.31,73808.5,-1.35,-30.45,-30.67,0,*57
1491073577.73,61987,16.31,73808.0,-1.31,-30.45,-30.45,0,*52
1491073578.99,61988,16.31,73808.8,-1.31,-30.51,-30.67,0,*58
1491073580.25,61989,16.31,73810.8,-1.29,-30.55,-30.77,0,*55
1491073581.51,61990,16.31,73804.0,-1.31,-30.67,-30.95,0,*59
1491073582.76,61991,16.31,73808.5,-1.29,-30.61,-30.73,0,*5F
1491073584.05,61992,16.31,73804.3,-1.31,-30.51,-30.61,0,*55
1491073585.31,61993,16.31,73800.3,-1.31,-30.77,-30.83,0,*5C
1491073586.6,61994,16.31,73810.0,-1.31,-30.61,-30.77,0,*57
1491073587.87,61995,16.31,73808.3,-1.35,-30.67,-30.77,0,*54
1491073589.15,61996,16.31,73804.5,-1.35,-30.51,-30.77,0,*52
1491073590.41,61997,16.31,73804.3,-1.29,-30.61,-30.61,0,*5A
1491073591.67,61998,16.31,73798.3,-1.29,-30.55,-30.73,0,*51
1491073592.93,61999,16.31,73800.0,-1.31,-30.77,-30.83,0,*56
1491073594.18,62000,16.31,73804.0,-1.31,-30.33,-30.51,0,*53
1491073595.41,62001,16.31,73810.3,-1.29,-30.27,-30.55,0,*5A
1491073596.64,62002,16.25,73806.8,-1.29,-30.39,-30.45,0,*57
1491073597.89,62003,16.31,73810.5,-1.29,-30.17,-30.39,0,*51
1491073599.15,62004,16.25,73814.8,-1.27,-30.17,-30.45,0,*53
1491073600.4,62005,16.31,73812.8,-1.29,-30.55,-30.61,0,*5C
1491073601.67,62006,16.25,73812.8,-1.29,-30.61,-30.77,0,*5F
1491073602.93,62007,16.31,73814.8,-1.29,-30.61,-30.77,0,*5E
1491073604.15,62008,16.31,73812.3,-1.29,-30.45,-30.55,0,*57
1491073605.43,62009,16.31,73810.8,-1.27,-30.55,-30.61,0,*5E
1491073606.72,62010,16.31,73806.3,-1.27,-30.73,-30.77,0,*55
1491073607.97,62011,16.31,73802.8,-1.27,-30.45,-30.55,0,*51
1491073609.2,62012,16.31,73804.3,-1.29,-30.23,-30.39,0,*56
1491073610.45,62013,16.31,73798.3,-1.29,-30.39,-30.61,0,*51
1491073611.71,62014,16.25,73792.3,-1.29,-30.55,-30.77,0,*5B
1491073612.99,62015,16.31,73794.8,-1.27,-30.55,-30.77,0,*54
1491073614.26,62016,16.31,73798.8,-1.29,-30.73,-30.89,0,*5C
1491073615.52,62017,16.25,73800.0,-1.29,-30.73,-30.89,0,*5D
1491073616.78,62018,16.25,73796.3,-1.29,-30.73,-30.77,0,*53
1491073618.04,62019,16.31,73800.8,-1.29,-30.55,-30.61,0,*51
1491073619.29,62020,16.25,73798.3,-1.29,-30.55,-30.73,0,*58
1491073620.58,62021,16.25,73796.5,-1.27,-30.61,-30.89,0,*55
1491073621.86,62022,16.31,73802.3,-1.27,-30.89,-30.95,0,*5D
1491073623.11,62023,16.25,73802.5,-1.29,-30.89,-31.11,0,*5F
1491073624.37,62024,16.31,73804.8,-1.29,-30.89,-31.23,0,*59
1491073625.63,62025,16.31,73806.0,-1.29,-30.89,-31.11,0,*59
1491073626.85,62026,16.25,73808.5,-1.31,-31.01,-31.33,0,*52
1491073628.08,62027,16.31,73810.8,-1.31,-31.01,-31.17,0,*55
1491073629.34,62028,16.31,73812.5,-1.31,-30.77,-31.01,0,*5D
1491073630.57,62029,16.25,73812.8,-1.31,-30.83,-31.01,0,*57
1491073631.82,62030,16.25,73814.3,-1.31,-30.95,-31.01,0,*58
1491073633.08,62031,16.31,73814.5,-1.31,-30.95,-31.33,0,*58
1491073634.31,62032,16.31,73814.8,-1.31,-31.17,-31.45,0,*51
1491073635.54,62033,16.31,73816.0,-1.31,-31.01,-31.29,0,*5D
1491073636.8,62034,16.25,73814.5,-1.35,-31.11,-31.29,0,*5F
1491073638.09,62035,16.31,73818.0,-1.35,-30.61,-30.77,0,*52
1491073639.37,62036,16.25,73822.3,-1.35,-30.77,-30.95,0,*5A
1491073640.66,62037,16.31,73816.0,-1.31,-30.77,-30.77,0,*53
1491073641.92,62038,16.31,73820.5,-1.29,-30.61,-30.73,0,*56
1491073643.18,62039,16.31,73820.8,-1.29,-30.73,-30.77,0,*50
1491073644.42,62040,16.25,73818.8,-1.31,-30.67,-30.83,0,*59
1491073645.71,62041,16.25,73814.0,-1.31,-30.61,-30.77,0,*55
1491073646.96,62042,16.25,73818.0,-1.29,-30.73,-30.95,0,*50
1491073648.24,62043,16.25,73816.5,-1.31,-30.77,-30.95,0,*5C
1491073649.5,62044,16.25,73814.5,-1.31,-30.51,-30.67,0,*52
1491073650.79,62045,16.31,73818.5,-1.31,-30.61,-30.77,0,*51
1491073652.04,62046,16.31,73814.3,-1.29,-30.61,-30.61,0,*5C
1491073653.28,62047,16.25,73808.0,-1.31,-30.67,-30.83,0,*5E
1491073654.56,62048,16.25,73810.8,-1.31,-30.77,-30.95,0,*57
1491073655.82,62049,16.25,73810.5,-1.31,-30.83,-30.95,0,*5D
1491073657.05,62050,16.25,73810.3,-1.35,-30.83,-31.01,0,*5D
1491073658.28,62051,16.25,73814.5,-1.31,-30.83,-31.01,0,*58
1491073659.51,62052,16.25,73816.3,-1.35,-31.01,-31.17,0,*53
1491073660.77,62053,16.31,73814.8,-1.35,-31.11,-31.33,0,*55
1491073662.0,62054,16.25,73810.8,-1.31,-31.01,-31.29,0,*5C
1491073663.26,62055,16.31,73818.0,-1.35,-31.11,-31.29,0,*58
1491073664.52,62056,16.25,73818.8,-1.35,-31.11,-31.33,0,*50
1491073665.79,62057,16.31,73818.8,-1.35,-31.11,-31.29,0,*5A
1491073667.05,62058,16.25,73822.8,-1.35,-30.95,-31.17,0,*55
1491073668.3,62059,16.25,73810.5,-1.39,-30.89,-31.05,0,*56
1491073669.55,62060,16.25,73804.8,-1.39,-30.83,-30.83,0,*59
1491073670.79,62061,16.25,73802.5,-1.35,-30.67,-30.83,0,*5E
1491073672.05,62062,16.31,73808.0,-1.39,-30.89,-31.05,0,*5E
1491073673.3,62063,16.25,73800.8,-1.39,-31.01,-31.23,0,*5A
1491073674.54,62064,16.25,73804.3,-1.35,-31.01,-31.29,0,*5B
1491073675.76,62065,16.25,73812.3,-1.35,-31.17,-31.33,0,*56
1491073677.02,62066,16.25,73818.0,-1.39,-31.17,-31.39,0,*53
1491073678.28,62067,16.25,73810.8,-1.39,-31.05,-31.23,0,*5A
1491073679.51,62068,16.25,73812.5,-1.39,-31.17,-31.33,0,*57
1491073680.77,62069,16.25,73818.0,-1.39,-31.33,-31.51,0,*54
1491073681.99,62070,16.31,73818.8,-1.39,-31.05,-31.33,0,*5D
1491073683.23,62071,16.25,73814.3,-1.41,-31.11,-31.29,0,*5D
1491073684.46,62072,16.25,73814.5,-1.39,-31.05,-31.33,0,*5F
1491073685.71,62073,16.25,73810.8,-1.41,-30.77,-30.95,0,*58
1491073686.95,62074,16.31,73812.5,-1.39,-30.83,-31.05,0,*53
1491073688.2,62075,16.25,73808.5,-1.41,-30.89,-30.95,0,*5F
1491073689.43,62076,16.25,73814.0,-1.41,-31.05,-31.11,0,*54
1491073690.69,62077,16.25,73810.5,-1.39,-30.89,-31.01,0,*5E
1491073691.95,62078,16.25,73814.8,-1.39,-31.01,-31.23,0,*50
1491073693.15,62079,16.25,73814.8,-1.41,-31.05,-31.29,0,*50
1491073694.39,62080,16.25,73816.3,-1.41,-31.11,-31.45,0,*59
1491073695.63,62081,16.25,73816.8,-1.41,-31.23,-31.45,0,*59
1491073696.88,62082,16.31,73822.5,-1.39,-31.05,-31.57,0,*52
1491073698.14,62083,16.25,73820.5,-1.41,-31.11,-31.39,0,*51
1491073699.41,62084,16.25,73820.8,-1.43,-31.11,-31.29,0,*55
1491073700.68,62085,16.25,73824.5,-1.43,-31.11,-31.45,0,*5E